Location: Terra Rouge Observatory
(46.0000°N, 62.7500°W)
Time: 09:20:56
(UTC-04:00)

NOSS 3-1 (A) - Visible Passes

Search period start: 24 January 2017 00:00
Search period end: 03 February 2017 00:00
Orbit: 838 x 1374 km, 63.4° (Epoch: 07 January)

Date Brightness Start Highest point End Pass type
(mag) Time Alt. Az. Time Alt. Az. Time Alt. Az.
24 Jan 5.0 03:30:57 41° ENE 03:30:57 41° ENE 03:36:59 10° ESE visible
24 Jan 4.1 05:18:26 45° WNW 05:20:23 55° WSW 05:28:27 10° SSE visible
24 Jan 5.6 07:07:43 10° W 07:10:05 11° WSW 07:12:30 10° WSW visible
24 Jan 4.6 19:09:35 10° SSE 19:12:34 23° SE 19:12:34 23° SE visible
24 Jan 5.6 20:58:54 10° SW 21:00:06 17° WSW 21:00:06 17° WSW visible
25 Jan 5.9 02:48:23 22° E 02:48:23 22° E 02:51:22 10° E visible
25 Jan 3.9 04:35:53 77° SW 04:35:53 77° SW 04:44:02 10° SSE visible
25 Jan 5.2 06:23:23 17° W 06:25:51 19° WSW 06:31:18 10° SSW visible
25 Jan 4.8 18:26:39 10° SE 18:30:13 17° ESE 18:30:17 17° ESE visible
25 Jan 4.2 20:14:06 10° SW 20:17:48 42° SW 20:17:48 42° SW visible
26 Jan 4.7 03:53:25 49° SE 03:53:25 49° SE 03:59:14 10° SE visible
26 Jan 4.8 05:40:55 30° WSW 05:41:30 30° WSW 05:48:24 10° SSW visible
26 Jan 3.4 19:29:39 10° SSW 19:35:22 60° ESE 19:35:28 60° ESE visible
26 Jan 5.6 21:21:05 10° W 21:22:59 20° W 21:22:59 20° W visible
27 Jan 5.7 03:11:03 24° ESE 03:11:03 24° ESE 03:14:06 10° ESE visible
27 Jan 4.6 04:58:34 40° SW 04:58:34 40° SW 05:04:45 10° S visible
27 Jan 3.9 18:45:37 10° S 18:50:55 37° ESE 18:53:05 29° ENE visible
27 Jan 4.3 20:35:49 10° WSW 20:40:35 45° WNW 20:40:35 45° WNW visible
28 Jan 5.1 04:16:18 33° S 04:16:18 33° S 04:20:36 10° SSE visible
28 Jan 5.6 06:03:49 14° WSW 06:03:49 14° WSW 06:06:16 10° SW visible
28 Jan 4.5 18:02:09 10° SSE 18:06:36 23° ESE 18:10:36 13° ENE visible
28 Jan 3.6 19:50:49 10° SW 19:56:43 71° NW 19:58:06 55° NNE visible
28 Jan 5.9 21:43:51 10° WNW 21:45:36 17° WNW 21:45:36 17° WNW visible
29 Jan 5.9 03:34:07 19° SE 03:34:07 19° SE 03:36:02 10° SE visible
29 Jan 5.6 05:21:38 17° SW 05:21:38 17° SW 05:24:07 10° SSW visible
29 Jan 3.3 19:06:09 10° SSW 19:12:00 78° SE 19:15:32 29° NE visible
29 Jan 5.0 20:58:15 10° W 21:03:01 30° NW 21:03:01 30° NW visible
30 Jan 5.9 04:39:30 15° S 04:39:30 15° S 04:40:53 10° S visible
30 Jan 3.7 18:21:51 10° SSW 18:27:27 50° ESE 18:32:52 14° NE visible
30 Jan 4.5 20:12:50 10° WSW 20:18:31 41° NW 20:20:22 34° N visible
30 Jan 6.1 22:06:50 10° NW 22:07:51 13° NW 22:07:51 13° NW visible
31 Jan 4.3 17:38:01 10° S 17:43:03 31° ESE 17:48:33 10° NE visible
31 Jan 4.0 19:27:40 10° WSW 19:33:32 57° NW 19:37:36 23° NNE visible
31 Jan 5.5 21:21:08 10° WNW 21:25:05 22° NNW 21:25:05 22° NNW visible
01 Feb 3.5 18:42:47 10° SW 18:48:42 83° NW 18:54:46 13° NE visible
01 Feb 5.2 20:35:29 10° W 20:40:42 27° NNW 20:42:15 25° N visible
01 Feb 6.3 22:29:33 10° NW 22:29:43 10° NW 22:29:43 10° NW visible
02 Feb 3.5 17:58:16 10° SSW 18:04:02 66° ESE 18:10:33 10° NE visible
02 Feb 4.8 19:49:56 10° W 19:55:28 34° NNW 19:59:20 20° NNE visible
02 Feb 5.8 21:44:05 10° NW 21:46:48 17° NNW 21:46:48 17° NNW visible
